パンスターズ彗星

C/2017 AB5 ( PanSTARRS )

English version
Home page
Updated on May 20, 2019

---------------------------------------------------------------------

・ プロフィール

発見日 2017年1月3日
発見光度 21.3等
発見者 Pan-STARRS 1 telescope (Haleakala)

・ 写真集

・ 軌道要素

Epoch 2018 Feb. 11.0 TT = JDT 2458160.5
T 2018 Feb. 17.86454 TT                                 MPCW
q   9.2164107            (2000.0)            P               Q
z  +0.0000154      Peri.   78.39498     -0.41272795     -0.83512672
 +/-0.0000017      Node    42.69035     +0.47374371     -0.53777915
e   0.9998581      Incl.   32.43098     +0.77796050     -0.11557226
From 78 observations 2017 Jan. 3-2019 Apr. 25, mean residual 0".5.

・ 光度変化

        m1 = 5.0 + 5 logΔ + 10.0 log r

---------------------------------------------------------------------

軌道要素はM.P.E.C. 2019-J142に掲載されたものです。
光度グラフはComet for Windowsで作成したものです。

---------------------------------------------------------------------

Copyright(C) Seiichi Yoshida (comet@aerith.net). All rights reserved.